Theta_e
309 310 309 308 308 307 308 308 307 307 307 307 307 307 306 306 307 306 306 306 305 306 306 306 306 306 307 308 308 316 319 322 321 319 318 320 318 322 323 320 320 321 321 320 320 321 321
308 309 308 308 307 307 307 307 307 307 307 308 307 307 307 306 306 305 306 306 306 306 306 306 305 305 307 310 307 315 314 317 321 320 316 319 318 321 322 320 320 320 321 320 319 321 321
308 307 307 307 307 306 308 308 306 307 308 308 307 307 307 306 306 305 305 305 306 305 305 306 305 305 307 308 308 314 313 315 318 320 317 318 316 321 321 321 320 320 320 321 320 320 321
308 307 307 306 305 306 307 306 307 308 308 308 307 306 307 306 304 305 304 306 306 306 306 306 305 305 306 305 306 311 314 315 319 320 316 318 319 319 320 320 320 321 321 322 320 320 320
307 307 306 306 305 305 306 307 307 308 308 307 307 306 307 304 304 303 304 305 306 306 306 305 305 305 307 306 306 308 313 315 317 319 317 319 320 320 320 321 322 320 321 320 320 319 320
307 306 306 305 305 306 306 306 307 308 308 307 306 306 306 304 303 303 303 302 303 304 305 305 305 306 305 309 311 312 315 316 318 317 318 320 322 322 319 320 321 319 319 317 318 320 319
306 306 306 304 304 304 305 305 306 308 308 307 306 305 306 304 303 303 304 303 306 305 304 304 304 306 308 310 313 315 314 317 318 319 321 321 324 323 320 317 316 315 317 316 316 317 319
306 306 305 304 304 304 305 305 306 307 307 307 307 304 304 304 303 303 304 304 304 305 303 303 303 303 304 306 315 315 314 316 320 320 318 322 323 319 318 317 317 318 317 316 317 317 317
305 306 305 304 304 303 304 305 306 306 306 307 307 305 303 303 304 302 304 303 303 304 307 305 306 307 310 313 314 316 313 314 319 319 320 320 320 319 319 318 318 317 317 316 318 318 317
305 305 305 304 304 303 303 304 305 306 305 306 307 305 301 301 304 303 303 303 303 304 312 309 310 311 313 314 316 313 311 314 314 320 320 320 318 320 321 320 317 318 318 318 319 319 316
305 305 305 304 303 303 303 303 304 305 305 305 306 306 302 304 304 304 304 304 304 305 317 308 307 310 313 315 316 317 313 315 316 317 318 320 321 320 321 320 317 319 319 319 318 320 320
304 305 304 304 303 303 303 303 303 303 305 305 306 305 304 306 305 304 305 305 306 313 317 314 313 314 316 316 317 315 316 315 314 315 315 316 316 317 318 318 318 316 317 317 317 319 325
304 304 304 304 303 303 303 303 302 303 304 304 306 305 304 305 308 305 305 307 315 318 312 315 317 316 316 317 317 317 317 319 318 318 318 314 313 315 315 318 316 317 319 323 324 327 323
303 304 304 303 303 303 303 302 302 302 303 304 304 302 305 305 306 305 306 312 318 315 316 314 316 316 319 317 316 318 319 321 318 318 320 322 320 311 313 317 318 319 320 325 322 323 321
303 303 304 303 303 303 303 302 302 302 302 304 303 305 307 307 305 306 310 315 318 316 314 315 315 317 317 318 318 318 318 319 317 317 322 323 320 312 313 314 317 318 324 314 316 313 317
303 303 303 303 303 302 302 302 302 301 301 303 305 306 309 305 306 307 316 316 317 313 312 313 315 315 317 318 318 318 318 316 315 313 313 317 321 315 313 314 312 317 316 320 321 325 319
303 303 303 304 303 302 302 302 301 301 301 303 307 312 308 305 307 315 316 315 313 312 312 313 314 314 315 316 317 316 316 315 314 312 313 315 317 316 314 316 318 315 317 315 317 316 321
302 302 302 303 303 302 301 301 301 300 301 306 308 319 308 306 317 316 316 314 310 313 311 311 312 313 314 314 316 315 315 316 312 313 314 313 317 318 318 313 312 314 316 316 319 320 314
302 302 302 302 303 302 301 300 300 300 301 303 310 312 309 309 319 317 314 314 313 313 311 311 312 312 312 313 315 314 313 312 312 313 314 313 316 318 317 315 313 314 315 314 313 314 320
301 301 302 301 302 302 301 300 299 299 300 303 309 315 315 312 313 315 314 314 314 312 311 310 311 311 312 312 312 314 313 313 311 312 310 311 313 316 318 316 316 316 315 314 314 321 317
301 301 301 301 300 301 300 300 299 298 300 304 309 313 308 319 314 314 314 313 313 313 312 310 311 311 311 313 312 312 313 312 312 311 312 313 318 314 312 312 313 315 314 314 315 315 319
300 300 300 299 299 301 300 299 299 297 301 304 305 305 307 311 310 312 311 314 314 314 313 312 311 311 311 312 311 312 312 313 313 313 312 312 316 314 315 312 312 313 313 313 313 313 313
300 300 300 299 299 300 300 299 299 298 298 301 300 303 305 310 311 312 313 314 313 313 313 313 311 312 312 313 312 313 311 311 311 312 312 313 315 315 316 312 313 316 314 313 313 313 313
299 299 301 300 300 300 300 299 299 298 296 298 298 300 303 312 310 312 311 311 313 313 314 312 313 312 311 310 311 311 311 311 312 312 312 313 314 315 316 314 318 315 313 313 313 313 312
299 299 301 300 299 299 299 299 299 299 296 297 296 298 301 305 307 308 309 310 312 312 314 313 314 313 311 313 313 313 313 313 313 312 312 312 313 316 315 316 314 312 313 313 315 317 312
299 300 300 299 298 298 299 299 298 299 297 297 297 296 299 301 304 304 306 307 312 313 313 313 313 312 313 315 314 314 315 313 314 314 313 312 312 314 314 314 317 317 314 313 314 321 314
300 301 300 298 297 298 298 298 299 298 298 297 297 295 297 299 298 301 304 306 308 311 313 313 314 314 313 315 314 313 312 313 315 314 314 314 313 315 315 314 313 312 315 315 321 321 314
301 301 300 298 297 298 299 298 298 298 298 298 298 295 296 298 298 297 299 301 303 308 312 312 314 314 315 315 314 313 313 313 313 312 313 313 313 314 313 316 314 312 316 319 317 315 316
301 300 299 298 297 298 298 298 299 298 297 298 298 296 296 296 297 296 295 295 296 299 301 307 310 312 313 314 314 314 314 312 312 314 312 314 312 313 313 313 312 312 314 315 314 315 313
Wind_Speed
21 22 23 23 25 25 26 25 25 26 26 26 26 22 19 16 15 13 11 11 10 8 7 7 6 8 6 11 14 4 10 21 22 24 22 17 20 19 19 18 15 15 10 16 8 6 9
21 22 23 24 25 25 26 26 27 27 27 28 28 26 20 17 15 12 10 10 9 9 7 7 6 8 11 14 10 8 4 11 23 24 25 24 17 19 11 9 19 11 13 10 11 8 7
21 21 22 25 26 25 26 27 27 29 30 29 25 25 21 15 13 7 9 8 7 5 7 7 5 8 12 14 6 6 14 8 23 29 22 25 18 18 6 8 10 13 17 9 14 12 7
20 22 23 25 26 25 29 27 29 29 30 29 27 25 22 12 10 5 8 8 9 9 7 5 4 7 7 15 20 5 7 11 10 26 24 17 17 15 6 4 9 12 12 14 13 12 8
21 22 24 25 25 25 25 29 28 29 30 30 28 26 18 6 4 4 6 6 9 10 8 5 5 8 8 4 16 19 12 11 14 19 18 15 11 14 8 12 11 13 12 18 13 18 10
20 22 23 25 25 25 25 28 29 30 29 29 28 26 17 3 2 3 4 6 2 6 6 5 5 5 11 9 15 17 10 9 18 18 12 8 7 12 12 14 15 18 19 19 17 10 15
19 21 23 25 25 25 25 26 28 29 28 28 29 26 15 6 4 3 0 1 4 3 6 2 3 7 7 5 13 13 10 7 19 17 12 12 8 19 25 23 17 13 17 16 12 7 8
18 20 23 24 25 25 25 26 27 28 27 27 28 21 17 5 7 3 1 3 8 5 2 2 5 6 11 8 10 11 8 3 13 16 17 7 9 18 19 18 16 9 13 14 4 10 6
18 19 21 23 25 26 25 26 27 27 26 24 24 18 10 13 8 6 4 5 4 7 2 5 4 7 6 5 9 8 3 5 9 21 19 15 7 16 15 15 13 13 13 13 6 9 8
17 19 21 23 25 26 26 26 27 27 27 26 23 19 15 1 3 4 4 3 3 4 2 1 2 2 3 5 5 13 7 2 3 17 16 9 7 15 18 19 15 12 4 7 6 9 6
16 18 21 23 25 27 27 27 27 27 26 27 21 17 11 5 1 3 1 3 3 3 2 2 3 1 4 3 11 5 6 5 3 9 3 5 15 17 16 17 15 4 10 7 3 4 4
15 18 21 23 25 27 28 29 28 27 27 27 22 16 9 6 1 2 2 3 4 3 8 5 3 4 7 6 4 6 3 4 5 7 9 4 4 4 3 2 8 13 13 8 3 1 4
15 17 20 22 24 27 28 29 29 29 29 29 25 13 7 4 4 2 4 3 2 6 1 6 4 4 5 4 4 6 5 4 4 4 3 4 4 4 2 11 8 8 13 4 4 4 4
13 15 18 20 23 25 28 30 30 30 32 33 20 7 6 6 2 2 2 2 9 5 7 4 5 9 4 2 4 1 6 7 3 6 3 2 3 2 4 2 7 12 15 3 6 6 7
11 13 17 19 21 25 28 31 33 33 36 34 9 2 4 3 3 4 3 6 3 2 1 5 7 5 3 5 5 3 1 4 5 2 2 4 4 1 3 3 4 3 6 2 2 2 1
10 12 15 18 22 25 27 31 33 36 39 24 7 5 2 5 5 5 1 4 2 1 2 4 2 3 6 5 3 4 2 3 3 2 3 4 6 6 8 7 0 3 3 2 2 4 5
9 12 13 17 21 26 27 29 34 36 39 16 4 3 2 2 4 1 4 1 4 2 2 3 2 2 3 4 2 2 1 3 1 3 1 4 3 5 5 7 9 5 4 3 3 2 3
8 12 14 17 20 25 28 30 32 34 38 12 5 3 0 5 1 1 4 3 1 2 1 2 2 3 3 4 4 2 3 2 3 1 3 3 4 4 2 2 4 5 6 9 4 5 1
7 10 14 16 19 22 26 28 31 31 28 11 6 3 2 3 0 3 4 4 1 1 2 2 2 2 2 4 2 4 3 2 2 1 2 4 4 4 2 3 3 5 8 7 2 3 5
6 11 13 15 17 21 24 26 29 31 24 6 4 3 1 1 2 2 4 4 4 2 1 0 2 2 5 4 1 5 5 2 1 2 5 1 2 2 2 3 3 5 10 11 8 4 5
6 9 13 16 16 19 21 24 27 31 17 4 2 2 2 2 1 1 2 1 3 4 2 3 3 4 3 3 4 3 5 5 3 3 1 2 1 1 2 1 2 3 7 13 13 11 6
5 8 12 16 19 16 19 22 25 30 14 5 4 3 5 4 4 4 2 2 1 2 2 4 3 5 5 2 2 4 7 7 6 8 5 3 2 1 3 3 6 9 11 11 15 15 17
4 8 11 15 15 16 16 19 21 25 17 7 6 3 3 1 2 4 1 2 1 1 1 3 1 3 4 2 2 3 2 2 1 6 9 5 5 3 1 0 5 10 19 19 15 11 15
5 7 12 13 15 15 16 17 19 19 19 8 6 4 3 2 4 3 4 3 3 1 2 3 2 3 3 5 6 5 3 3 4 3 5 6 5 3 1 2 4 1 2 2 19 12 15
4 7 10 12 13 15 14 16 17 16 17 8 9 4 3 4 5 7 4 5 6 4 3 3 1 2 5 2 4 4 3 4 4 4 6 7 7 2 2 5 10 10 6 5 8 7 18
3 6 9 11 11 13 15 15 19 11 15 9 7 6 2 4 3 6 5 3 5 6 4 3 2 2 3 1 2 3 4 3 4 5 4 6 7 4 3 3 4 4 3 4 3 3 7
4 7 9 12 10 11 13 14 14 14 11 9 4 8 3 3 3 4 3 3 4 5 4 2 4 4 2 5 4 3 4 1 4 5 6 7 6 9 8 4 7 0 6 5 3 4 7
7 10 10 9 9 12 14 13 12 10 11 7 6 4 3 3 8 5 5 7 5 4 5 4 3 4 4 6 4 4 7 6 5 5 6 10 6 6 7 5 7 7 6 4 6 5 5
5 7 7 8 8 10 13 14 13 11 10 5 3 5 4 5 6 10 14 15 13 10 4 3 4 4 2 5 6 4 4 3 7 5 8 6 7 3 6 4 3 7 3 5 3 4 2
Wind_Direction
347 348 349 347 345 343 336 340 338 335 332 327 322 316 313 309 302 291 291 295 302 303 303 294 269 218 221 231 251 103 160 184 182 185 193 204 195 190 204 205 210 219 227 223 263 153 220
349 347 348 346 345 340 340 339 339 333 330 326 321 315 307 296 296 286 279 291 297 298 305 296 260 207 230 239 250 184 137 182 194 190 191 207 207 198 223 207 211 206 229 215 208 194 199
349 346 347 347 345 342 340 348 342 336 334 334 334 328 313 280 285 279 284 282 295 281 295 292 247 223 238 233 209 165 237 251 198 192 192 198 205 201 216 197 197 256 208 214 211 196 209
348 346 348 349 347 345 350 347 337 340 338 340 344 337 322 272 272 265 276 278 280 264 276 260 225 240 250 238 245 217 216 219 190 189 193 190 224 198 240 189 184 202 213 211 207 211 219
347 347 350 350 348 351 347 341 345 344 345 348 348 346 334 310 265 260 251 289 291 269 261 209 208 217 248 188 220 211 211 195 180 186 188 180 233 196 195 189 184 205 204 210 206 196 192
348 348 351 351 351 348 349 346 344 346 347 350 351 349 342 181 225 212 238 308 351 114 164 175 240 215 242 220 181 180 186 237 173 167 161 186 204 199 198 198 200 197 216 204 204 189 223
350 350 352 352 352 352 347 346 344 347 348 354 358 360 5 167 158 202 266 173 198 158 205 329 345 223 37 113 161 157 143 154 172 161 178 177 190 197 196 205 215 215 204 239 208 140 204
349 353 353 351 353 351 348 347 346 348 351 357 4 17 27 59 155 196 57 335 33 354 189 278 292 295 287 280 171 124 129 153 178 174 172 167 212 207 202 208 214 244 194 205 165 152 209
349 354 352 352 352 351 350 347 347 350 349 354 3 4 32 42 125 103 54 48 354 346 31 13 6 283 289 229 152 132 101 60 199 178 182 184 189 217 198 206 192 201 200 198 234 182 221
350 353 353 352 352 352 350 349 347 349 347 348 354 356 2 206 311 126 83 4 346 15 176 3 342 284 255 212 89 90 64 27 328 184 178 186 204 192 192 191 196 186 197 162 174 193 218
349 351 353 352 353 351 351 349 348 347 345 341 345 341 347 41 62 97 11 337 326 219 116 88 246 270 179 175 137 100 111 158 84 115 149 180 188 192 185 190 188 142 149 145 174 239 303
348 353 353 355 352 351 350 349 348 346 343 339 334 323 331 295 341 152 147 280 251 239 32 35 60 82 105 113 62 109 37 113 57 61 65 24 39 8 356 88 187 135 126 113 106 266 244
350 353 354 355 353 350 349 349 348 346 342 338 329 307 281 299 330 253 305 265 247 36 301 347 47 95 78 86 94 120 178 134 113 130 158 24 24 26 336 108 135 164 171 152 193 196 235
350 351 353 354 355 351 349 347 347 348 343 340 332 298 262 263 277 254 278 265 50 355 68 220 101 90 70 74 30 75 156 114 134 95 105 123 131 39 309 115 177 188 198 247 208 195 174
349 349 353 350 353 353 351 348 347 348 347 341 345 272 266 278 246 206 248 50 30 296 47 142 157 104 108 114 137 162 344 74 119 207 105 149 87 120 300 106 151 181 211 13 304 65 200
345 347 352 350 350 352 353 350 350 347 348 345 326 270 253 303 162 207 26 88 160 260 9 328 49 289 138 114 138 139 145 47 96 48 314 102 109 146 133 113 219 243 181 180 212 206 215
351 342 347 351 350 352 354 354 351 351 348 353 294 271 106 133 188 198 78 78 119 51 338 340 51 126 88 130 162 83 45 113 40 77 8 112 107 139 158 209 166 164 205 225 288 290 285
348 345 347 352 353 355 352 353 354 355 354 360 303 278 75 158 288 148 120 164 317 356 350 60 91 73 157 160 156 150 140 43 84 137 113 33 95 140 150 94 315 316 239 206 228 193 273
346 350 355 354 352 354 352 353 355 357 3 332 315 290 231 216 262 105 132 143 268 243 30 10 75 21 177 157 150 139 133 25 68 11 133 159 133 124 181 201 197 226 223 234 268 340 205
356 356 358 355 351 349 354 354 355 353 358 354 296 317 162 182 346 178 176 167 179 173 185 360 119 166 162 159 10 158 140 129 105 49 22 354 161 292 260 60 115 198 213 212 194 209 209
359 352 354 354 352 352 352 356 359 353 3 24 358 26 4 310 124 212 226 186 221 205 207 213 175 252 203 167 174 160 140 144 169 141 145 279 190 83 284 63 144 232 217 210 213 221 233
345 348 352 351 346 349 351 358 2 0 21 72 1 352 330 290 296 236 166 185 243 167 252 182 256 185 196 224 251 179 187 188 184 182 197 177 153 134 273 232 251 257 247 236 227 228 246
333 344 347 345 354 353 356 1 5 10 25 43 9 313 309 360 263 267 175 148 150 314 155 276 139 198 203 64 25 350 139 220 200 192 199 194 156 184 236 212 282 264 233 220 219 215 222
337 353 343 349 355 354 360 1 7 12 26 32 31 311 314 300 264 303 339 341 231 247 326 144 279 252 91 131 129 118 117 139 147 168 200 193 176 164 311 253 240 33 68 243 220 225 218
341 328 342 348 354 357 0 358 2 4 16 31 20 21 338 291 324 273 294 302 283 241 238 236 102 53 145 202 150 161 174 184 175 195 204 217 186 194 231 240 292 263 185 180 181 243 220
289 313 331 341 352 355 5 353 0 4 3 19 27 10 326 310 63 354 315 315 293 230 197 187 114 152 166 250 255 239 219 209 180 174 207 214 230 226 164 258 261 51 146 174 195 232 180
284 309 324 331 343 352 351 353 352 356 352 2 360 13 308 287 311 311 302 303 319 302 289 99 165 177 238 215 227 243 256 239 213 202 184 194 211 225 228 254 282 73 147 175 220 104 110
274 281 304 325 334 340 343 352 341 343 347 336 326 355 15 301 287 259 274 272 279 263 279 67 198 197 192 227 223 196 250 202 249 214 185 188 197 206 222 229 263 135 140 229 106 110 122
284 298 312 316 330 337 334 330 336 357 336 3 286 299 293 235 275 291 267 267 273 281 296 282 338 304 308 237 222 220 213 219 231 229 196 219 214 203 220 223 107 185 243 120 99 111 145